Regional Weather Roundup
Issued by NWS

Home | Current Version | Previous Version | Text Only | Print | Product List | Glossary Off
Versions: 1 2 3 4 5 6 7 8 9 10 11 12 13 14 15 16 17 18 19 20 21 22 23 24 25 26 27 28 29 30 31 32 33 34 35 36 37 38 39 40 41 42 43 44 45 46 47 48 49 50

000
ASUS45 KTFX 230910
RWRMT
MONTANA REGIONAL WEATHER ROUNDUP
NATIONAL WEATHER SERVICE GREAT FALLS MT
200 AM MST THU NOV 23 2017

NOTE: "FAIR" INDICATES FEW OR NO CLOUDS BELOW 12000 FEET WITH NO
SIGNIFICANT WEATHER AND/OR OBSTRUCTIONS TO VISIBILITY.

MTZ001>007-043-231000-
WEST OF THE DIVIDE

CITY           SKY/WX    TMP DP  RH WIND       PRES   REMARKS
KALISPELL      CLOUDY    46  45  96 S8        29.92F
MISSOULA       FOG       39  39 100 CALM      30.05F VSB 1/4
BUTTE          FAIR      36  30  79 CALM      30.15F
MULLAN PASS    LGT RAIN  42  40  92 S9G24     30.03F VSB 1/4
ANACONDA         N/A     48  36  61 S17G23    30.10S
DEER LODGE       N/A     50  37  62 S12       30.09S
EUREKA           N/A     54  46  76 MISG      29.87F
HAMILTON         N/A     52  39  62 S16       30.06F
LIBBY            N/A    N/A N/A N/A S5        29.88F
PLAINS           N/A     43  41  93 CALM      29.99F VSB 0
RONAN            N/A     53  44  71 SE3       30.02F
$$

MTZ008-052>055-231000-
SOUTHWEST MONTANA

CITY           SKY/WX    TMP DP  RH WIND       PRES   REMARKS
BOZEMAN        FAIR      36  31  82 SE7       30.10F WCI  30
DILLON         FAIR      40  33  76 S9        30.16F
W YELLOWSTONE  CLOUDY    43  39  87 VRB7G16   30.30F
ENNIS          CLOUDY    45  37  76 S18       30.23F
TWIN BRIDGES     N/A     40  30  67 CALM      30.13F
$$

MTZ009-010-012-014-046-048-049-054-231000-
EAST SLOPES AND CENTRAL MONTANA

CITY           SKY/WX    TMP DP  RH WIND       PRES   REMARKS
CUT BANK       FAIR      56  41  57 W26G36    29.82F
GREAT FALLS    FAIR      56  38  50 SW17G23   29.92F
MALMSTROM AFB  FAIR      52  39  61 SW14      29.92F
HELENA         FAIR      36  34  92 S3        30.03F
BOWMANS CRNR   FAIR      49  38  68 S15       29.94R
CHOTEAU          N/A     57  39  51 SW14      29.89F
FAIRFIELD      FAIR      58  38  47 SW15      29.89F
POWER          FAIR      55  39  55 SW18G25   29.90F
RAYNESFORD     FAIR      59  37  44 W20G28    29.94F
ULM            MOCLDY    58  39  50 SW20G28   29.94S
$$

MTZ011-013-016-021-045-047-050-051-231000-
NORTH CENTRAL MONTANA

CITY           SKY/WX    TMP DP  RH WIND       PRES   REMARKS
HAVRE          FAIR      48  41  76 SW18      29.82F
LEWISTOWN      FAIR      55  38  52 SW22G30   29.96F
N BAR RANCH    FAIR      54  36  50 VRB6G23   30.00F
CHINOOK          N/A     61  43  51 SW14G21   29.79F
DENTON         FAIR      50  40  67 S18       29.90F
GEYSER         FAIR      54  38  54 SW14      29.94F
GRASS RANGE    FAIR      58  38  47 S7        29.91S
STANFORD       FAIR      51  37  60 SW10G18   29.97F
WINIFRED       FAIR      54  40  58 SW23G33   29.89F
$$

MTZ017>020-022>027-061-062-231000-
NORTHEAST MONTANA

CITY           SKY/WX    TMP DP  RH WIND       PRES   REMARKS
GLASGOW        FAIR      36  35  96 SE3       29.82F
GLENDIVE       FAIR      38  34  85 S5        29.89F
JORDAN           N/A     49  39  68 W13       29.86F
SIDNEY         FAIR      27  27 100 SW5       29.85F
WOLF POINT     FAIR      24  22  91 CALM      29.84F
MALTA          CLEAR     52  41  66 W13       29.80S
PLENTYWOOD       N/A     27  25  93 CALM      29.80F
POPLAR           N/A     30  28  93 CALM      29.84F
SCOBEY           N/A     39  30  70 CALM      29.79F
$$

MTZ028>42-056>058-231000-
SOUTHCENTRAL AND SOUTHEAST MONTANA

CITY           SKY/WX    TMP DP  RH WIND       PRES   REMARKS
BAKER          FAIR      45  40  82 W9        29.94F
BILLINGS       MOCLDY    56  39  53 W21       30.02F
LIVINGSTON     FAIR      53  40  61 SW33G47   30.07F
MILES CITY     FAIR      44  40  85 SE10      29.93F
BIG TIMBER     CLEAR     54  37  54 W23G30    30.07F
EKALAKA          N/A     52  37  56 SW7       29.96
FORSYTH          N/A     57  39  51 W9        29.93F
HARLOWTON      MOCLDY    44  37  76 NW9       30.02F
LAUREL           N/A     50  37  62 SW9       30.05S
ROUNDUP          N/A     49  37  63 S12       29.90F
$$

REGIONAL REPORTS...DAKOTAS

CITY           SKY/WX    TMP DP  RH WIND       PRES   REMARKS
WILLISTON      FAIR      25  22  88 S3        29.84F
MINOT          FAIR      24  21  88 S7        29.85F WCI  16
DICKINSON      FAIR      39  36  89 SW6       29.87F
BEACH          FAIR      45  41  87 W15       29.92F
CROSBY         FAIR      27  27 100 S14       29.79F WCI  15
TIOGA          MOCLDY    21  21 100 CALM      29.84F
WATFORD CITY   FAIR      27  25  93 CALM      29.85F
BISMARCK       FAIR      26  21  81 CALM      29.94F
GRAND FORKS    CLOUDY    24  23  96 CALM      29.94S
FARGO          MOCLDY    23  18  81 W5        29.96R
BUFFALO SD       N/A     44  38  79 W14       29.90F
RAPID CITY     FAIR      44  36  73 W5        30.04S
$$

REGIONAL REPORTS...WYOMING/IDAHO/WASHINGTON

CITY           SKY/WX    TMP DP  RH WIND       PRES   REMARKS
GILLETTE       FAIR      51  36  56 SW18      30.07F
SHERIDAN       FAIR      45  35  68 W6        30.05F
BUFFALO WY     FAIR      51  30  44 SW7       30.11F
CODY           FAIR      57  36  45 VRB6      30.16F
YELLOWSTONE LA   N/A     37  35  92 CALM      30.36F
IDAHO FALLS    FOG       35  35 100 CALM      30.29F VSB 1/2
SALMON         CLOUDY    39  38  96 CALM      30.23F FOG
BOISE          FAIR      47  46  97 CALM      30.13F FOG
SPOKANE        CLOUDY    54  49  83 S9        29.92S
$$

REGIONAL REPORTS...ALBERTA

CITY           SKY/WX    TMP DP  RH WIND       PRES   REMARKS
EDMONTON       CLEAR     23  16  74 NE5       29.41F
CALGARY        CLEAR     50  32  50 SW13G21   29.50F
LETHBRIDGE     CLEAR     54  43  66 SW17G23   29.69F
MEDICINE HAT   CLEAR     45  39  81 SW17G23   29.71R
$$

REGIONAL REPORTS...SASKATCHEWAN

CITY           SKY/WX    TMP DP  RH WIND       PRES   REMARKS
SWIFT CURRENT  CLEAR     39  36  87 SW15      29.65F WCI  31
REGINA         CLEAR     18  16  93 SE13      29.72F WCI   4
SASKATOON      PTCLDY    16  12  86 E8        29.68F WCI   5
$$



USA.gov is the U.S. government's official web portal to all federal, state and local government web resources and services.